Aeroporto :
LOGIN :

Iscrizione | Disclaimer

   EN    FR    IT 

 










Sommario :    VFR   VFR Marginale   IFR   IFR Intensivo   IFR Molto Intensivo
Visibilità : 
Base nubi : 
>= 8 km
>= 3000ft
5 / 8 km
1000 / 3000 ft
1500m / 5 km
500 / 1000 ft
800 / 1500m
200 / 500 ft
< 800m
< 200 ft
Simboli :   Temporali  Nebbia  Neve Forte  Precipitazioni Forti  Vento > 20 kt
SIGMETs :   Varie  Temporali  Ghiacco  Turbolenza  Onda orograficha  Ceneri Vulcaniche






- Altitudine del aeroporto : 1989 ft
- Codice IATA : KLV


LKKV - Karlovy Vary

ULTIMO METAR :
  • 230300Z 26008KT 9999 FEW016 BKN020 03/01 Q1022

METARs OBSOLETI :
  • 230200Z 26008KT 230V290 9999 FEW018 BKN036 03/01 Q1021
  • 230110Z 25008KT 220V290 9999 -RA SCT010 BKN018 04/03 Q1021 RMK REG QNH 1017
  • 230100Z 25006KT 220V280 9999 FEW008 BKN018 04/03 Q1021

TAF TAF LKKV
Valido dal 23 a 00 ore il 24 a 06 ore UTC


222300Z 2300/2406 26008KT 9999 BKN023
PROB30
TEMPO 2300/2306 4000 BR BKN008
BECMG 2316/2319 VRB02KT 5000 BR NSC
TEMPO 2322/2404 2000 MIFG SCT003



MetMap, La meteo Aeronautica in un colpo d'occhio ! - Copyright ORBIFLY Dicembre 2007 - Disclaimer

ORBIFLY MET'MAP TEAM :

Programmazione e sviluppo : Alexandra Zaïnal
Concezione : Baudouin d'Aumeries
Aiuto per la programmazione : Marc-Olivier Méhu
Supporto tecnico e logistico : Manuel Goepfert
Aiuto per la traduzione : Arnaldo La Scala

Contatto : metmap@orbifly.com




FONTI E CREDITI :

   NOAA